Tracking 31030 objects as of 15-Jul-2025
HD Live streaming from Space Station
objects crossing your sky now

BREEZE-M R/B

Track BREEZE-M R/B now!


NORAD ID: 38099
Int'l Code: 2012-011B
Perigee: 2,535.5 km
Apogee: 63,133.8 km
Inclination: 24.6 °
Period: 1,287.6 minutes
Semi major axis: 39205 km
RCS: 1.5849 m2 (large)
Launch date: March 25, 2012
Source: Commonwealth of Independent States (former USSR) (CIS)
Launch site: TYURATAM MISSILE AND SPACE COMPLEX (TTMTR)

Note: This is a ROCKET BODY
Your satellite tracking list
Your tracking list is empty




NASA's NSSDC Master Catalog

Two Line Element Set (TLE):
1 38099U 12011B   25194.00879001 -.00000100  00000-0  00000-0 0  9992
2 38099  24.5570 195.8916 7728269 315.9809   3.5824  1.11835641 54189
Source of the keplerian elements: AFSPC